Temperature
31 32 33 32 32 32 32 32 31 31 30 29 29 28 28 28 27 27 26 26 25 24 23 23 22 21 21 20 20 19 19 19 18 18 18 18 17 17 17 17 17 16 16 16
30 32 32 32 32 32 32 32 32 31 30 30 29 28 27 27 27 27 26 25 25 24 23 22 21 21 20 20 20 19 19 18 18 18 18 17 17 17 17 17 16 16 16 16
29 31 31 30 31 31 31 32 32 30 30 30 29 28 27 27 27 26 26 25 24 23 22 22 21 21 20 20 19 19 19 18 18 18 17 17 17 17 16 16 16 16 16 16
28 28 28 30 32 32 32 31 31 31 30 30 29 28 27 26 26 25 25 24 23 23 22 21 21 20 20 19 19 19 18 18 18 17 17 17 17 16 16 16 16 16 15 15
27 28 28 30 31 32 31 30 30 30 30 30 29 28 27 25 25 24 23 23 22 22 22 21 20 20 20 19 18 18 18 18 17 17 17 17 16 16 16 16 15 15 15 15
27 26 27 28 30 31 30 28 29 29 29 29 29 28 26 25 24 23 23 22 22 22 21 20 20 19 19 19 18 18 18 18 17 17 17 16 16 16 16 16 15 15 15 15
26 26 27 29 30 30 28 26 28 28 28 27 27 26 24 24 23 22 22 21 21 21 20 20 19 19 19 18 18 18 17 17 17 17 16 16 16 16 15 15 15 15 14 14
26 26 26 28 28 27 25 26 26 26 26 26 25 24 23 23 22 21 21 21 20 20 20 19 19 19 18 18 18 17 17 17 17 16 16 16 15 15 15 15 15 14 14 14
26 26 25 26 26 25 25 25 25 25 25 24 24 23 22 21 21 21 20 20 20 19 19 19 19 18 18 18 17 17 17 16 16 16 15 15 15 15 15 15 14 14 14 13
25 25 25 25 25 25 24 24 24 24 24 24 23 22 21 21 20 20 20 19 19 19 18 18 18 18 18 17 17 17 16 16 16 15 15 15 15 14 14 14 14 14 14 13
24 25 25 25 24 24 24 24 24 23 23 23 22 21 21 20 20 19 19 19 19 18 18 18 18 18 17 17 17 16 16 16 15 15 15 15 15 14 14 14 14 14 14 13
23 24 24 23 23 23 23 23 23 23 22 22 21 20 20 19 19 19 18 18 18 17 17 17 17 17 17 17 16 16 15 15 15 15 15 14 14 14 14 14 14 13 13 13
22 22 22 22 22 22 22 22 22 21 21 20 20 19 19 18 18 18 17 17 17 17 16 16 16 16 16 16 16 16 15 15 15 15 15 14 14 14 14 14 13 13 13 13
20 21 21 21 21 21 21 21 21 20 20 19 19 18 18 18 17 17 17 17 16 16 16 16 16 16 16 15 15 15 15 15 15 15 15 14 14 14 14 13 13 13 12 12
20 20 20 20 20 20 20 20 20 19 19 19 18 18 17 17 17 16 16 16 16 16 15 15 15 15 15 15 15 15 15 15 15 15 15 14 14 14 13 13 13 12 12 12
19 19 19 19 19 19 19 19 19 18 18 18 17 17 17 16 16 16 15 15 15 15 15 15 15 15 14 14 15 14 15 15 15 14 14 14 14 14 13 13 13 12 12 12
18 18 18 18 18 17 18 18 18 17 17 17 16 16 16 16 15 15 15 15 15 15 15 15 14 14 14 14 14 14 14 14 14 14 14 14 14 13 13 13 13 12 12 12
17 17 17 17 17 17 17 17 17 16 16 16 16 15 15 15 15 14 14 14 14 14 14 14 14 14 14 14 14 14 14 14 14 14 14 14 13 13 13 13 12 12 12 11
17 17 17 17 16 16 16 16 16 16 16 15 15 15 15 14 14 14 14 14 14 14 14 14 14 13 13 14 14 14 14 14 14 14 13 13 13 13 13 12 12 12 12 11
16 16 16 16 16 16 16 16 15 15 15 15 15 14 14 14 14 14 14 13 13 13 13 13 13 13 13 13 14 14 14 14 13 13 13 13 13 13 13 12 12 12 12 11
16 16 16 16 16 16 16 15 15 15 14 14 14 14 14 14 13 13 13 13 13 13 13 13 13 13 13 13 13 13 14 14 13 13 13 13 13 13 12 12 12 12 11 11
15 15 15 15 15 15 15 15 14 14 14 14 14 14 14 13 13 13 13 13 13 13 13 13 13 13 13 13 13 13 13 13 13 13 13 13 13 12 12 12 12 11 11 11
15 15 15 15 15 14 14 14 14 14 14 14 14 14 13 13 13 13 13 13 13 13 13 13 13 13 13 13 13 13 13 13 13 13 13 13 12 12 12 12 12 11 11 11
14 14 14 14 14 14 14 14 14 14 14 13 13 13 13 13 13 13 13 13 12 12 12 12 12 12 12 12 12 12 12 12 12 12 12 12 12 12 12 12 11 11 11 11
14 14 14 14 14 14 13 13 13 13 13 13 13 13 13 13 13 13 13 12 12 12 12 12 12 12 12 12 12 12 12 12 12 12 12 12 12 12 12 11 11 11 11 11
14 14 13 13 13 13 13 13 13 13 13 13 13 13 13 13 13 13 12 12 12 12 12 12 12 12 12 12 12 12 12 12 12 12 12 12 12 11 11 11 11 11 10 10
13 13 13 13 13 13 13 13 13 13 13 13 13 13 13 13 12 12 12 12 12 12 12 12 12 12 12 12 12 12 12 12 11 11 11 11 11 11 11 10 10 10 10 10
Wind_Speed
16 14 11 9 11 13 14 12 10 5 3 4 6 6 4 6 7 9 8 8 8 8 7 6 6 6 6 4 5 5 5 4 4 3 2 2 2 2 2 2 2 2 2 2
15 16 14 13 12 12 11 10 9 7 3 2 6 6 5 6 6 7 7 7 8 7 8 7 6 5 5 5 5 5 4 3 4 3 3 3 2 2 2 2 2 2 2 2
13 15 15 15 13 12 11 10 7 6 3 3 5 4 5 6 6 5 6 6 6 7 7 6 6 6 6 5 4 4 4 3 3 3 3 3 2 2 2 2 2 2 2 3
12 13 17 11 10 10 9 7 4 3 2 4 5 6 7 6 6 4 5 6 5 5 6 6 5 6 5 5 5 5 5 4 3 3 3 2 2 2 1 2 2 2 2 3
11 14 15 11 9 9 7 5 1 2 2 1 3 6 5 5 6 5 5 5 4 4 5 6 5 6 6 5 4 5 5 4 3 3 3 3 2 1 1 2 2 2 3 3
11 13 13 8 6 5 6 5 2 2 2 1 0 3 3 4 6 5 6 5 4 4 5 5 5 5 5 5 4 4 4 3 3 3 3 3 2 2 1 2 2 3 3 3
14 15 10 5 6 7 6 2 2 2 3 3 3 3 5 5 5 5 6 5 5 4 4 4 5 5 5 4 4 3 3 3 3 3 3 3 3 2 2 2 3 3 4 3
12 14 8 3 3 2 0 2 2 3 4 4 4 6 7 6 5 4 5 5 5 4 4 4 4 4 4 3 3 3 3 3 3 3 2 3 3 2 2 3 3 3 3 3
6 4 2 5 3 2 3 2 2 3 3 3 3 5 6 5 4 4 4 4 4 4 4 4 4 4 4 3 3 3 4 3 3 3 3 3 3 3 2 2 2 3 2 3
4 4 1 1 2 3 3 3 2 2 2 1 1 3 4 4 3 3 3 2 3 3 3 3 4 4 4 4 3 4 4 4 3 3 3 3 2 2 2 1 1 1 2 2
6 4 3 3 2 2 3 2 2 2 1 1 2 3 3 3 3 3 3 2 2 3 2 3 3 4 4 5 5 5 4 4 4 4 4 3 3 3 2 2 1 1 1 2
5 3 3 3 3 3 3 2 2 2 1 1 2 2 2 2 2 3 2 2 2 2 2 2 3 3 3 4 5 5 5 5 4 4 4 4 5 4 7 4 5 6 5 4
4 5 4 3 3 4 3 3 2 1 2 1 2 2 2 3 2 2 3 3 2 2 2 2 2 2 3 4 5 4 4 3 3 4 5 5 5 5 4 4 5 6 5 5
5 4 3 4 4 5 4 3 3 3 2 1 2 2 2 3 3 3 3 3 2 2 3 3 3 3 2 4 4 4 4 4 4 3 4 5 5 5 5 6 5 3 2 3
4 4 4 4 4 4 4 3 3 2 2 1 1 2 2 2 2 3 2 2 2 2 2 3 3 3 3 4 5 5 5 4 4 3 4 4 4 4 4 5 5 5 5 3
4 5 5 4 4 5 5 4 4 4 3 2 2 2 2 2 2 2 2 2 3 3 2 2 2 2 2 3 4 5 4 5 4 4 4 4 4 5 4 4 4 4 4 5
4 5 6 5 5 6 5 4 4 3 3 3 3 2 2 3 2 1 2 2 2 2 2 2 2 2 3 3 4 4 5 6 6 5 4 4 4 4 4 4 5 5 5 5
5 6 6 6 6 6 5 5 4 3 4 4 4 3 3 3 3 2 2 2 2 1 1 2 1 2 3 3 3 3 4 5 5 4 3 3 3 4 4 4 4 5 5 5
6 7 7 6 6 6 6 5 4 4 4 4 5 4 4 3 3 2 3 3 3 3 1 1 2 2 2 2 2 2 3 3 3 3 4 4 4 3 4 4 4 4 4 5
6 6 6 6 6 5 5 4 4 3 3 4 4 4 4 3 3 2 2 2 2 2 2 2 3 2 2 2 2 2 2 3 3 4 4 4 4 4 4 4 4 4 4 5
4 4 5 4 3 3 2 2 3 4 4 4 4 4 4 3 3 3 3 2 2 2 2 3 3 2 2 2 3 3 3 3 3 3 3 3 3 3 3 3 3 3 3 4
3 3 3 3 2 2 1 2 4 4 5 4 4 5 4 4 3 3 2 2 3 3 2 2 2 2 2 2 3 3 3 3 2 2 3 3 3 3 3 3 3 4 4 4
2 1 2 2 2 1 2 3 3 4 4 4 4 4 4 3 2 3 3 3 3 3 1 1 3 4 2 2 3 3 3 2 2 2 3 3 3 3 3 4 4 4 4 4
2 2 2 1 1 2 2 2 3 3 3 3 3 3 3 3 2 2 3 5 4 4 1 2 4 3 2 3 3 3 2 2 2 3 3 3 2 3 3 3 3 3 3 3
2 2 2 2 2 2 3 3 3 3 3 3 4 4 3 2 2 2 3 4 5 4 2 3 4 4 4 3 3 2 2 1 2 2 2 2 2 2 2 3 3 2 3 3
2 2 2 2 2 2 1 1 1 2 2 3 3 2 2 2 2 2 2 3 3 3 2 3 3 4 4 3 3 3 2 2 2 2 2 1 1 2 2 2 2 2 2 2
2 2 2 2 1 1 1 1 1 1 2 2 2 1 2 2 2 1 2 2 2 2 2 2 2 2 2 2 2 2 2 2 2 2 1 1 1 1 1 1 1 1 2 2
Wind_Direction
265 272 264 249 244 246 245 253 260 252 200 157 137 120 117 134 137 134 134 134 134 136 131 129 129 130 130 139 137 137 144 145 136 133 135 130 122 121 122 123 117 101 93 72
262 263 264 265 258 251 253 250 252 254 257 109 110 121 139 132 135 131 136 143 140 135 138 138 138 138 133 129 125 123 121 139 142 142 144 142 136 132 128 120 113 110 99 77
260 256 261 253 255 254 248 249 253 254 243 130 121 138 142 131 135 141 145 137 136 138 135 137 142 141 139 135 137 137 132 129 144 154 158 155 150 133 141 132 119 105 95 87
258 260 255 255 250 251 250 258 244 218 232 164 144 131 120 124 122 127 122 122 124 136 141 144 147 151 144 148 149 147 148 154 159 164 152 135 127 137 134 123 123 125 112 95
251 250 250 253 248 245 249 248 232 225 253 227 142 128 108 107 116 127 121 113 116 144 145 143 151 150 148 153 154 155 155 153 157 156 147 143 150 149 128 130 138 139 121 109
246 252 254 253 272 280 256 232 315 326 334 335 185 199 117 91 102 105 113 114 113 125 137 137 144 150 152 158 156 158 157 153 146 140 142 146 145 136 136 147 137 128 113 110
242 249 250 276 298 277 247 241 360 360 37 44 54 66 93 91 82 84 100 104 107 108 125 136 142 145 148 151 155 149 139 134 133 138 146 143 132 129 138 140 128 125 129 123
240 247 244 320 282 292 354 39 53 45 46 59 75 97 102 98 96 101 97 100 107 110 117 128 133 139 143 146 141 134 134 136 134 140 150 137 136 147 153 149 149 147 146 141
231 230 65 30 31 64 52 21 34 59 65 69 75 112 121 116 112 115 114 119 122 124 126 123 133 139 152 147 136 137 137 137 137 137 120 131 154 170 174 173 176 158 156 157
237 196 177 9 357 21 29 17 27 27 38 73 92 111 119 117 115 118 118 125 125 119 127 132 135 140 144 141 134 143 147 148 148 146 141 138 168 162 147 149 165 154 152 151
233 235 235 240 288 313 336 348 3 8 332 319 94 113 126 130 136 142 142 145 140 138 149 152 143 144 146 146 151 156 160 163 165 159 145 127 94 59 88 80 118 150 109 102
249 258 267 265 274 284 299 311 318 321 351 43 117 134 145 155 158 154 157 150 144 150 161 159 155 157 158 162 161 168 181 188 184 168 161 158 143 108 54 72 86 83 83 98
311 304 286 282 288 283 281 283 287 287 271 229 174 161 165 189 181 161 168 172 175 177 175 170 168 168 170 171 169 180 189 190 185 174 170 173 169 163 147 100 75 71 77 96
327 323 314 310 310 303 292 293 282 275 281 238 175 166 182 198 175 178 187 181 180 181 176 177 179 178 176 171 179 190 193 188 185 189 182 179 179 179 172 166 159 142 106 122
313 316 300 301 305 297 295 289 278 265 260 250 212 210 202 193 187 182 175 174 173 191 197 198 197 191 188 188 188 195 201 194 186 194 193 185 179 175 173 170 155 146 147 151
321 313 299 292 302 299 288 273 265 263 249 231 229 233 206 169 152 166 170 176 186 203 200 197 206 204 197 203 198 194 193 188 187 203 206 185 181 176 174 167 161 158 161 157
295 291 295 288 277 273 274 273 265 254 229 215 215 203 165 146 143 181 195 196 179 177 181 190 211 222 208 204 210 203 194 186 196 215 208 182 180 179 175 176 171 166 164 156
279 274 276 275 275 270 267 266 263 249 228 212 196 179 170 170 184 192 194 172 158 172 196 213 213 227 211 198 215 210 199 187 193 205 188 169 181 181 172 171 170 164 157 152
285 287 282 278 279 275 267 254 244 231 216 189 181 171 163 177 175 176 173 176 187 204 211 191 215 237 221 182 227 225 207 197 193 192 176 166 180 181 177 178 177 171 164 159
291 292 296 287 282 278 260 233 218 200 180 173 169 159 160 167 163 170 170 180 195 198 186 175 198 223 208 178 209 233 211 202 193 184 181 183 188 189 186 183 177 174 174 171
278 290 301 298 303 291 246 193 177 165 161 164 160 160 156 154 155 160 182 186 154 142 168 170 198 214 196 199 222 233 207 196 193 192 189 190 192 187 178 175 173 173 173 179
298 304 328 340 359 4 58 137 150 151 150 156 162 160 155 156 161 162 158 145 141 124 167 177 165 145 146 222 232 229 213 202 193 194 191 187 188 190 187 176 180 185 187 187
310 324 357 356 6 27 94 119 134 136 139 149 154 153 153 147 155 155 146 132 139 127 159 150 131 127 132 229 248 238 214 200 197 199 204 205 194 180 183 194 200 195 190 194
30 34 11 22 49 74 95 108 115 119 125 128 127 121 127 132 132 128 119 127 133 144 181 138 147 155 201 232 249 246 229 220 225 221 213 204 194 189 190 201 208 201 189 193
66 82 61 55 76 92 105 115 120 131 144 130 119 118 127 131 134 127 129 139 145 160 178 167 180 195 220 234 234 236 234 224 229 236 223 209 202 199 198 204 204 207 211 210
45 75 66 44 58 74 105 140 154 146 128 120 113 118 124 123 110 104 117 141 159 175 196 186 191 205 218 229 234 235 232 216 224 228 237 238 219 218 217 210 206 217 214 210
58 75 82 70 50 32 41 81 81 78 94 106 109 100 96 95 99 130 159 162 173 196 211 212 214 225 242 248 236 229 232 239 240 235 227 222 225 227 224 225 239 241 231 213
Height
1464 1458 1457 1460 1463 1463 1466 1469 1477 1476 1477 1478 1479 1482 1483 1484 1488 1491 1496 1499 1502 1506 1509 1512 1515 1517 1518 1520 1522 1523 1523 1523 1524 1524 1525 1525 1525 1524 1525 1525 1525 1525 1525 1524
1470 1461 1459 1463 1460 1461 1464 1465 1469 1472 1476 1473 1478 1482 1485 1487 1488 1492 1496 1499 1502 1505 1508 1511 1513 1515 1517 1519 1520 1521 1523 1523 1523 1524 1524 1524 1524 1524 1523 1524 1524 1523 1523 1523
1478 1466 1466 1473 1465 1464 1464 1461 1466 1474 1475 1474 1477 1482 1484 1486 1489 1492 1495 1498 1501 1504 1507 1510 1512 1514 1516 1517 1519 1520 1520 1522 1522 1523 1523 1523 1523 1523 1523 1523 1523 1523 1522 1522
1479 1478 1490 1468 1455 1457 1461 1462 1462 1467 1470 1473 1478 1480 1483 1486 1488 1492 1495 1498 1501 1504 1506 1509 1511 1513 1514 1516 1518 1519 1519 1520 1521 1522 1522 1522 1522 1521 1521 1521 1521 1521 1521 1521
1481 1483 1477 1464 1456 1456 1462 1467 1464 1467 1469 1472 1475 1478 1483 1486 1488 1492 1495 1498 1500 1503 1505 1507 1509 1511 1512 1514 1516 1517 1517 1518 1519 1519 1520 1520 1520 1520 1520 1520 1520 1520 1520 1519
1481 1487 1487 1469 1458 1457 1462 1471 1468 1468 1470 1472 1474 1479 1484 1487 1489 1491 1493 1497 1499 1502 1504 1505 1507 1509 1511 1512 1513 1514 1515 1516 1517 1517 1517 1518 1518 1518 1518 1518 1518 1518 1518 1518
1481 1482 1474 1464 1460 1461 1476 1479 1471 1472 1474 1475 1478 1482 1486 1487 1489 1491 1493 1496 1499 1501 1502 1504 1506 1507 1508 1510 1511 1512 1513 1514 1514 1515 1515 1516 1516 1516 1516 1517 1517 1516 1516 1516
1478 1482 1480 1466 1464 1470 1475 1473 1473 1475 1476 1478 1480 1483 1485 1488 1490 1492 1493 1496 1498 1500 1501 1503 1504 1505 1507 1508 1509 1511 1511 1512 1512 1513 1514 1514 1514 1515 1515 1515 1515 1515 1516 1516
1470 1474 1471 1469 1471 1473 1474 1475 1475 1476 1477 1479 1481 1483 1485 1487 1490 1492 1494 1496 1498 1499 1500 1501 1502 1503 1505 1506 1508 1509 1509 1510 1510 1511 1512 1512 1513 1513 1514 1514 1514 1514 1515 1515
1467 1468 1470 1471 1472 1474 1475 1476 1476 1477 1479 1480 1482 1484 1485 1487 1490 1492 1494 1496 1497 1498 1499 1500 1501 1502 1503 1504 1506 1507 1507 1508 1508 1509 1510 1511 1511 1512 1512 1512 1513 1513 1513 1514
1467 1468 1469 1472 1473 1475 1475 1476 1476 1478 1479 1480 1482 1483 1485 1487 1489 1491 1493 1495 1496 1496 1497 1498 1499 1499 1500 1501 1502 1503 1505 1506 1507 1507 1508 1509 1509 1509 1510 1511 1511 1512 1512 1513
1468 1468 1469 1472 1473 1474 1475 1476 1476 1478 1479 1480 1481 1483 1484 1486 1489 1490 1491 1493 1494 1495 1495 1496 1497 1497 1498 1499 1500 1501 1502 1504 1505 1505 1506 1507 1507 1508 1508 1509 1510 1510 1511 1511
1469 1469 1470 1471 1472 1473 1474 1475 1476 1477 1478 1479 1480 1482 1484 1485 1487 1489 1490 1491 1492 1492 1493 1493 1494 1495 1496 1497 1498 1499 1500 1501 1503 1503 1504 1505 1506 1506 1507 1507 1508 1509 1509 1510
1469 1469 1469 1470 1471 1472 1473 1473 1475 1476 1477 1478 1478 1480 1482 1484 1486 1487 1488 1489 1490 1490 1491 1491 1492 1493 1494 1495 1496 1497 1498 1499 1500 1501 1502 1503 1504 1504 1504 1505 1505 1506 1507 1507
1470 1470 1470 1470 1470 1471 1471 1472 1473 1474 1475 1476 1477 1479 1481 1482 1484 1485 1486 1487 1487 1488 1489 1489 1490 1490 1491 1492 1493 1494 1496 1497 1498 1499 1500 1500 1501 1502 1503 1503 1503 1504 1505 1505
1470 1470 1470 1470 1470 1470 1471 1471 1471 1472 1473 1474 1476 1477 1479 1480 1481 1482 1483 1484 1485 1485 1486 1487 1488 1488 1489 1490 1491 1492 1493 1494 1495 1496 1497 1498 1499 1499 1500 1501 1501 1502 1503 1503
1470 1470 1469 1469 1469 1469 1469 1469 1470 1470 1471 1472 1474 1475 1476 1477 1478 1480 1481 1482 1483 1484 1485 1485 1486 1486 1487 1488 1489 1490 1491 1492 1493 1494 1495 1495 1496 1497 1498 1499 1499 1500 1501 1501
1469 1469 1468 1468 1467 1467 1466 1466 1467 1468 1468 1469 1471 1472 1474 1475 1476 1477 1479 1480 1481 1482 1483 1483 1484 1485 1485 1486 1487 1488 1489 1490 1491 1492 1492 1493 1494 1495 1496 1497 1497 1498 1499 1500
1466 1466 1465 1464 1464 1463 1462 1463 1464 1465 1466 1467 1468 1470 1471 1473 1474 1475 1477 1478 1479 1479 1480 1481 1482 1483 1483 1484 1485 1486 1488 1489 1489 1490 1491 1491 1492 1493 1494 1495 1496 1497 1498 1498
1463 1463 1462 1461 1460 1460 1459 1460 1461 1462 1464 1465 1466 1468 1469 1471 1472 1473 1474 1476 1476 1477 1478 1479 1480 1481 1481 1482 1483 1484 1485 1486 1487 1488 1489 1489 1490 1492 1493 1494 1495 1496 1497 1497
1461 1460 1460 1459 1458 1458 1458 1459 1460 1460 1462 1464 1465 1466 1468 1470 1471 1471 1472 1473 1474 1475 1476 1477 1478 1479 1480 1481 1482 1482 1483 1484 1486 1487 1487 1488 1489 1490 1491 1492 1493 1494 1495 1495
1460 1459 1458 1458 1458 1458 1458 1458 1459 1460 1462 1463 1464 1465 1467 1468 1469 1470 1470 1471 1472 1473 1474 1476 1476 1477 1478 1479 1480 1481 1482 1483 1484 1485 1486 1487 1488 1488 1489 1490 1491 1492 1493 1493
1459 1459 1459 1458 1458 1458 1459 1459 1460 1461 1461 1463 1464 1465 1466 1467 1468 1469 1469 1470 1472 1472 1473 1475 1475 1476 1477 1478 1479 1480 1481 1482 1483 1483 1484 1485 1486 1486 1487 1488 1489 1490 1490 1491
1459 1459 1459 1459 1459 1459 1459 1460 1461 1462 1463 1464 1464 1465 1466 1467 1468 1469 1469 1470 1471 1472 1473 1473 1474 1475 1476 1477 1478 1479 1480 1481 1481 1482 1483 1483 1483 1484 1485 1486 1486 1487 1487 1488
1461 1461 1461 1461 1461 1460 1461 1461 1462 1463 1464 1465 1465 1466 1467 1468 1469 1469 1470 1470 1471 1471 1472 1473 1474 1474 1475 1476 1477 1478 1478 1479 1480 1480 1481 1481 1481 1482 1482 1483 1484 1484 1484 1485
1462 1462 1462 1462 1462 1462 1462 1463 1463 1464 1465 1465 1466 1467 1468 1469 1469 1470 1470 1471 1471 1471 1472 1473 1473 1473 1474 1475 1475 1476 1477 1478 1478 1478 1479 1479 1479 1480 1480 1480 1481 1481 1481 1482
1464 1464 1463 1463 1463 1464 1464 1464 1465 1465 1465 1466 1467 1468 1469 1470 1470 1471 1471 1471 1471 1472 1472 1472 1473 1473 1473 1474 1474 1475 1475 1476 1476 1476 1477 1477 1477 1477 1477 1477 1477 1478 1478 1478